Time,TemperatureF,DewpointF,PressureIn,WindDirection,WindDirectionDegrees,WindSpeedMPH,WindSpeedGustMPH,Humidity,HourlyPrecipIn,Conditions,Clouds,dailyrainin,SoftwareType,DateUTC
2013-06-18 00:00:00,74.4,70.6,29.93,NE,51,0.0,15.0,88,5.26,,---,0.00,VWS V13.01,2013-06-18 04:00:00,
2013-06-18 00:01:00,74.4,70.6,29.93,NE,51,0.0,15.0,88,5.26,,---,0.00,VWS V13.01,2013-06-18 04:01:00,
2013-06-18 00:06:00,74.3,70.8,29.92,ENE,75,0.0,15.0,89,5.26,,---,0.00,VWS V13.01,2013-06-18 04:06:00,
2013-06-18 00:11:00,74.2,70.4,29.92,NE,49,0.0,15.0,88,5.26,,---,0.00,VWS V13.01,2013-06-18 04:11:00,
2013-06-18 00:16:00,74.1,70.3,29.92,NNE,16,0.0,15.0,88,5.26,,---,0.00,VWS V13.01,2013-06-18 04:16:00,
2013-06-18 00:21:00,73.9,70.5,29.92,ESE,113,0.0,15.0,89,5.26,,---,0.00,VWS V13.01,2013-06-18 04:21:00,
2013-06-18 00:26:00,73.8,70.4,29.92,NE,56,0.0,15.0,89,5.26,,---,0.00,VWS V13.01,2013-06-18 04:26:00,
2013-06-18 00:31:00,73.7,70.3,29.92,NW,313,0.0,15.0,89,5.26,,---,0.00,VWS V13.01,2013-06-18 04:31:00,
2013-06-18 00:36:00,73.6,70.2,29.91,ESE,107,0.0,15.0,89,5.26,,---,0.00,VWS V13.01,2013-06-18 04:36:00,
2013-06-18 00:41:00,73.5,70.1,29.91,SE,127,0.0,15.0,89,5.26,,---,0.00,VWS V13.01,2013-06-18 04:41:00,
2013-06-18 00:46:00,73.4,70.0,29.91,SSE,147,0.0,15.0,89,5.26,,---,0.00,VWS V13.01,2013-06-18 04:46:00,
2013-06-18 00:51:00,73.3,69.9,29.91,SE,146,0.0,15.0,89,5.26,,---,0.00,VWS V13.01,2013-06-18 04:51:00,
2013-06-18 00:56:00,73.2,69.8,29.91,SE,144,0.0,15.0,89,5.26,,---,0.00,VWS V13.01,2013-06-18 04:56:00,
2013-06-18 01:01:00,73.0,69.9,29.91,SE,143,0.0,15.0,90,5.26,,---,0.00,VWS V13.01,2013-06-18 05:01:00,
2013-06-18 01:06:00,72.9,69.8,29.91,SE,142,0.0,15.0,90,5.26,,---,0.00,VWS V13.01,2013-06-18 05:06:00,
2013-06-18 01:11:00,72.8,69.7,29.91,North,6,1.0,15.0,90,5.26,,---,0.00,VWS V13.01,2013-06-18 05:11:00,
2013-06-18 01:16:00,72.7,69.6,29.91,East,82,0.0,15.0,90,5.26,,---,0.00,VWS V13.01,2013-06-18 05:16:00,
2013-06-18 01:21:00,72.6,69.8,29.90,ENE,72,0.0,15.0,91,5.26,,---,0.00,VWS V13.01,2013-06-18 05:21:00,
2013-06-18 01:26:00,72.6,69.8,29.90,East,88,0.0,15.0,91,5.26,,---,0.00,VWS V13.01,2013-06-18 05:26:00,
2013-06-18 01:31:00,72.5,69.7,29.90,NE,41,0.0,15.0,91,5.26,,---,0.00,VWS V13.01,2013-06-18 05:31:00,
2013-06-18 01:36:00,72.4,69.6,29.89,ENE,77,0.0,15.0,91,5.26,,---,0.00,VWS V13.01,2013-06-18 05:36:00,
2013-06-18 01:41:00,72.3,69.5,29.89,ESE,109,0.0,15.0,91,5.26,,---,0.00,VWS V13.01,2013-06-18 05:41:00,
2013-06-18 01:46:00,72.1,69.3,29.89,East,99,0.0,15.0,91,5.26,,---,0.00,VWS V13.01,2013-06-18 05:46:00,
2013-06-18 01:51:00,72.0,69.6,29.88,NE,49,0.0,15.0,92,5.26,,---,0.00,VWS V13.01,2013-06-18 05:51:00,
2013-06-18 01:56:00,71.9,69.4,29.88,East,93,0.0,15.0,92,5.26,,---,0.00,VWS V13.01,2013-06-18 05:56:00,
2013-06-18 02:01:00,71.8,69.3,29.88,ESE,102,0.0,15.0,92,5.26,,---,0.00,VWS V13.01,2013-06-18 06:01:00,
2013-06-18 02:06:00,71.6,69.2,29.88,ESE,102,0.0,15.0,92,5.26,,---,0.00,VWS V13.01,2013-06-18 06:06:00,
2013-06-18 02:11:00,71.5,69.1,29.88,ESE,102,0.0,15.0,92,5.26,,---,0.00,VWS V13.01,2013-06-18 06:11:00,
2013-06-18 02:16:00,71.3,69.2,29.88,ESE,117,0.0,15.0,93,5.26,,---,0.00,VWS V13.01,2013-06-18 06:16:00,
2013-06-18 02:21:00,71.2,69.1,29.88,ESE,119,0.0,15.0,93,5.26,,---,0.00,VWS V13.01,2013-06-18 06:21:00,
2013-06-18 02:26:00,71.1,69.0,29.88,NE,49,0.0,15.0,93,5.26,,---,0.00,VWS V13.01,2013-06-18 06:26:00,
2013-06-18 02:31:00,71.0,68.9,29.88,East,85,0.0,15.0,93,5.26,,---,0.00,VWS V13.01,2013-06-18 06:31:00,
2013-06-18 02:36:00,70.9,68.8,29.87,NNW,343,0.0,15.0,93,5.26,,---,0.00,VWS V13.01,2013-06-18 06:36:00,
2013-06-18 02:41:00,70.9,68.8,29.87,ESE,108,0.0,15.0,93,5.26,,---,0.00,VWS V13.01,2013-06-18 06:41:00,
2013-06-18 02:46:00,70.8,68.7,29.87,East,100,1.0,15.0,93,5.26,,---,0.00,VWS V13.01,2013-06-18 06:46:00,
2013-06-18 02:51:00,70.7,68.6,29.86,East,79,0.0,15.0,93,5.26,,---,0.00,VWS V13.01,2013-06-18 06:51:00,
2013-06-18 02:56:00,70.7,68.6,29.86,ENE,71,0.0,15.0,93,5.26,,---,0.00,VWS V13.01,2013-06-18 06:56:00,
2013-06-18 03:01:00,70.6,68.2,29.86,ENE,72,0.0,15.0,92,5.26,,---,0.00,VWS V13.01,2013-06-18 07:01:00,
2013-06-18 03:06:00,70.5,68.1,29.86,ENE,67,0.0,15.0,92,5.26,,---,0.00,VWS V13.01,2013-06-18 07:06:00,
2013-06-18 03:11:00,70.5,68.1,29.86,ENE,66,0.0,15.0,92,5.26,,---,0.00,VWS V13.01,2013-06-18 07:11:00,
2013-06-18 03:16:00,70.4,68.0,29.86,ESE,103,1.0,15.0,92,5.26,,---,0.00,VWS V13.01,2013-06-18 07:16:00,
2013-06-18 03:21:00,70.3,67.9,29.86,East,90,0.0,15.0,92,5.26,,---,0.00,VWS V13.01,2013-06-18 07:21:00,
2013-06-18 03:26:00,70.2,67.8,29.86,NE,56,0.0,15.0,92,5.26,,---,0.00,VWS V13.01,2013-06-18 07:26:00,
2013-06-18 03:31:00,70.1,67.7,29.86,NE,37,0.0,15.0,92,5.26,,---,0.00,VWS V13.01,2013-06-18 07:31:00,
2013-06-18 03:36:00,70.0,67.6,29.85,ESE,104,0.0,15.0,92,5.26,,---,0.00,VWS V13.01,2013-06-18 07:36:00,
2013-06-18 03:41:00,69.9,67.8,29.85,NE,56,1.0,15.0,93,5.26,,---,0.00,VWS V13.01,2013-06-18 07:41:00,
2013-06-18 03:46:00,69.8,67.7,29.85,NE,54,0.0,15.0,93,5.26,,---,0.00,VWS V13.01,2013-06-18 07:46:00,
2013-06-18 03:51:00,69.7,67.6,29.85,North,350,1.0,15.0,93,5.26,,---,0.00,VWS V13.01,2013-06-18 07:51:00,
2013-06-18 03:56:00,69.6,67.5,29.85,ESE,117,0.0,15.0,93,5.26,,---,0.00,VWS V13.01,2013-06-18 07:56:00,
2013-06-18 04:01:00,69.5,67.4,29.85,ENE,75,0.0,15.0,93,5.26,,---,0.00,VWS V13.01,2013-06-18 08:01:00,
2013-06-18 04:06:00,69.4,67.3,29.84,North,0,0.0,15.0,93,5.26,,---,0.00,VWS V13.01,2013-06-18 08:06:00,
2013-06-18 04:11:00,69.4,67.6,29.84,NE,49,0.0,15.0,94,5.26,,---,0.00,VWS V13.01,2013-06-18 08:11:00,
2013-06-18 04:16:00,69.4,67.6,29.84,NE,56,0.0,15.0,94,5.26,,---,0.00,VWS V13.01,2013-06-18 08:16:00,
2013-06-18 04:21:00,69.4,67.6,29.84,ESE,106,0.0,15.0,94,5.26,,---,0.00,VWS V13.01,2013-06-18 08:21:00,
2013-06-18 04:26:00,69.4,67.6,29.83,ESE,105,0.0,15.0,94,5.26,,---,0.00,VWS V13.01,2013-06-18 08:26:00,
2013-06-18 04:31:00,69.4,67.6,29.83,NE,52,0.0,15.0,94,5.26,,---,0.00,VWS V13.01,2013-06-18 08:31:00,
2013-06-18 04:36:00,69.4,67.6,29.83,NE,56,0.0,15.0,94,5.26,,---,0.00,VWS V13.01,2013-06-18 08:36:00,
2013-06-18 04:41:00,69.4,67.6,29.85,NE,52,0.0,15.0,94,5.26,,---,0.00,VWS V13.01,2013-06-18 08:41:00,
2013-06-18 04:46:00,69.5,67.7,29.85,East,94,0.0,15.0,94,5.26,,---,0.00,VWS V13.01,2013-06-18 08:46:00,
2013-06-18 04:51:00,69.5,67.7,29.85,East,79,0.0,15.0,94,5.26,,---,0.00,VWS V13.01,2013-06-18 08:51:00,
2013-06-18 04:56:00,69.6,67.8,29.84,ENE,64,2.0,15.0,94,5.26,,---,0.00,VWS V13.01,2013-06-18 08:56:00,
2013-06-18 05:01:00,69.7,67.9,29.84,NE,54,0.0,15.0,94,5.26,,---,0.00,VWS V13.01,2013-06-18 09:01:00,
2013-06-18 05:06:00,69.8,68.0,29.84,NE,46,0.0,15.0,94,5.26,,---,0.00,VWS V13.01,2013-06-18 09:06:00,
2013-06-18 05:11:00,70.0,68.2,29.84,ESE,103,0.0,15.0,94,5.26,,---,0.00,VWS V13.01,2013-06-18 09:11:00,
2013-06-18 05:16:00,70.1,68.3,29.84,East,101,0.0,15.0,94,5.26,,---,0.00,VWS V13.01,2013-06-18 09:16:00,
2013-06-18 05:21:00,70.1,68.3,29.84,NW,326,0.0,15.0,94,5.26,,---,0.00,VWS V13.01,2013-06-18 09:21:00,
2013-06-18 05:26:00,70.2,68.4,29.85,ENE,61,0.0,15.0,94,5.26,,---,0.00,VWS V13.01,2013-06-18 09:26:00,
2013-06-18 05:31:00,70.2,68.4,29.85,ENE,70,0.0,15.0,94,5.26,,---,0.00,VWS V13.01,2013-06-18 09:31:00,
2013-06-18 05:36:00,70.3,68.5,29.85,East,97,0.0,15.0,94,5.26,,---,0.00,VWS V13.01,2013-06-18 09:36:00,
2013-06-18 05:41:00,70.3,68.5,29.85,East,86,0.0,15.0,94,5.26,,---,0.00,VWS V13.01,2013-06-18 09:41:00,
2013-06-18 05:46:00,70.4,68.6,29.85,NE,53,0.0,15.0,94,5.26,,---,0.00,VWS V13.01,2013-06-18 09:46:00,
2013-06-18 05:51:00,70.4,68.6,29.85,East,82,0.0,15.0,94,5.26,,---,0.00,VWS V13.01,2013-06-18 09:51:00,
2013-06-18 05:56:00,70.4,68.6,29.86,ESE,117,0.0,15.0,94,5.26,,---,0.00,VWS V13.01,2013-06-18 09:56:00,
2013-06-18 06:01:00,70.4,68.6,29.86,ESE,109,0.0,15.0,94,5.26,,---,0.00,VWS V13.01,2013-06-18 10:01:00,
2013-06-18 06:06:00,70.5,68.7,29.86,ENE,60,0.0,15.0,94,5.26,,---,0.00,VWS V13.01,2013-06-18 10:06:00,
2013-06-18 06:11:00,70.5,68.7,29.86,ESE,110,0.0,15.0,94,5.26,,---,0.00,VWS V13.01,2013-06-18 10:11:00,
2013-06-18 06:16:00,70.5,68.7,29.86,ENE,70,0.0,15.0,94,5.26,,---,0.00,VWS V13.01,2013-06-18 10:16:00,
2013-06-18 06:21:00,70.5,68.7,29.86,ENE,62,1.0,15.0,94,5.26,,---,0.00,VWS V13.01,2013-06-18 10:21:00,
2013-06-18 06:26:00,70.6,68.8,29.86,ESE,110,0.0,15.0,94,5.26,,---,0.00,VWS V13.01,2013-06-18 10:26:00,
2013-06-18 06:31:00,70.6,68.8,29.86,East,89,0.0,15.0,94,5.26,,---,0.00,VWS V13.01,2013-06-18 10:31:00,
2013-06-18 06:36:00,70.6,68.8,29.86,SE,127,1.0,15.0,94,5.26,,---,0.00,VWS V13.01,2013-06-18 10:36:00,
2013-06-18 06:41:00,70.6,68.8,29.86,East,101,1.0,15.0,94,5.26,,---,0.00,VWS V13.01,2013-06-18 10:41:00,
2013-06-18 06:46:00,70.6,68.8,29.86,NE,48,0.0,15.0,94,5.26,,---,0.00,VWS V13.01,2013-06-18 10:46:00,
2013-06-18 06:51:00,70.7,68.9,29.86,ESE,105,0.0,15.0,94,5.26,,---,0.00,VWS V13.01,2013-06-18 10:51:00,
2013-06-18 06:56:00,70.7,68.9,29.86,NNE,25,0.0,15.0,94,5.26,,---,0.00,VWS V13.01,2013-06-18 10:56:00,
2013-06-18 07:01:00,70.8,69.0,29.86,NNE,18,1.0,15.0,94,5.26,,---,0.00,VWS V13.01,2013-06-18 11:01:00,
2013-06-18 07:06:00,70.8,68.7,29.86,SE,133,0.0,15.0,93,5.26,,---,0.00,VWS V13.01,2013-06-18 11:06:00,
2013-06-18 07:11:00,70.9,68.8,29.86,NNW,348,1.0,15.0,93,5.26,,---,0.00,VWS V13.01,2013-06-18 11:11:00,
2013-06-18 07:16:00,70.9,68.8,29.86,ESE,104,0.0,15.0,93,5.26,,---,0.00,VWS V13.01,2013-06-18 11:16:00,
2013-06-18 07:21:00,71.0,68.9,29.86,ESE,105,0.0,15.0,93,5.26,,---,0.00,VWS V13.01,2013-06-18 11:21:00,
2013-06-18 07:26:00,71.1,69.0,29.86,NNE,26,1.0,15.0,93,5.26,,---,0.00,VWS V13.01,2013-06-18 11:26:00,
2013-06-18 07:31:00,71.1,69.0,29.86,NE,49,0.0,15.0,93,5.26,,---,0.00,VWS V13.01,2013-06-18 11:31:00,
2013-06-18 07:36:00,71.2,69.1,29.86,North,1,0.0,15.0,93,5.26,,---,0.00,VWS V13.01,2013-06-18 11:36:00,
2013-06-18 07:41:00,71.2,69.1,29.87,North,9,1.0,15.0,93,5.26,,---,0.00,VWS V13.01,2013-06-18 11:41:00,
2013-06-18 07:46:00,71.2,69.1,29.87,ENE,78,0.0,15.0,93,5.26,,---,0.00,VWS V13.01,2013-06-18 11:46:00,
2013-06-18 07:51:00,71.2,69.1,29.87,North,352,0.0,15.0,93,5.26,,---,0.00,VWS V13.01,2013-06-18 11:51:00,
2013-06-18 07:56:00,71.2,69.1,29.86,ESE,106,2.0,15.0,93,5.26,,---,0.00,VWS V13.01,2013-06-18 11:56:00,
2013-06-18 08:01:00,71.2,69.1,29.86,NE,50,0.0,15.0,93,5.26,,---,0.00,VWS V13.01,2013-06-18 12:01:00,
2013-06-18 08:06:00,71.2,69.4,29.86,NNE,31,0.0,15.0,94,5.26,,---,0.00,VWS V13.01,2013-06-18 12:06:00,
2013-06-18 08:11:00,71.2,69.4,29.86,ESE,108,0.0,15.0,94,5.26,,---,0.00,VWS V13.01,2013-06-18 12:11:00,
2013-06-18 08:16:00,71.3,69.5,29.86,NNW,333,0.0,15.0,94,5.26,,---,0.00,VWS V13.01,2013-06-18 12:16:00,
2013-06-18 08:21:00,71.3,69.5,29.86,NE,41,1.0,15.0,94,5.26,,---,0.00,VWS V13.01,2013-06-18 12:21:00,
2013-06-18 08:26:00,71.4,69.6,29.86,East,88,2.0,15.0,94,5.26,,---,0.00,VWS V13.01,2013-06-18 12:26:00,
2013-06-18 08:31:00,71.5,69.7,29.86,East,101,1.0,15.0,94,5.26,,---,0.00,VWS V13.01,2013-06-18 12:31:00,
2013-06-18 08:36:00,71.6,69.8,29.86,NE,56,0.0,15.0,94,5.26,,---,0.00,VWS V13.01,2013-06-18 12:36:00,
2013-06-18 08:41:00,71.7,69.9,29.86,SSE,158,0.0,15.0,94,5.26,,---,0.00,VWS V13.01,2013-06-18 12:41:00,
2013-06-18 08:46:00,71.8,70.0,29.86,SSE,158,0.0,15.0,94,5.26,,---,0.00,VWS V13.01,2013-06-18 12:46:00,
2013-06-18 08:51:00,72.0,70.2,29.86,SSE,158,0.0,15.0,94,5.26,,---,0.00,VWS V13.01,2013-06-18 12:51:00,
2013-06-18 08:56:00,72.1,70.0,29.86,East,95,2.0,15.0,93,5.26,,---,0.00,VWS V13.01,2013-06-18 12:56:00,
2013-06-18 09:01:00,72.3,70.2,29.86,ENE,69,0.0,15.0,93,5.26,,---,0.00,VWS V13.01,2013-06-18 13:01:00,
2013-06-18 09:06:00,72.6,70.5,29.86,ENE,70,0.0,15.0,93,5.26,,---,0.00,VWS V13.01,2013-06-18 13:06:00,
2013-06-18 09:11:00,72.9,70.4,29.85,East,79,0.0,15.0,92,5.26,,---,0.00,VWS V13.01,2013-06-18 13:11:00,
2013-06-18 09:16:00,73.1,70.3,29.85,WSW,243,0.0,15.0,91,5.26,,---,0.00,VWS V13.01,2013-06-18 13:16:00,
2013-06-18 09:21:00,73.2,70.4,29.85,ESE,117,0.0,15.0,91,5.26,,---,0.00,VWS V13.01,2013-06-18 13:21:00,
2013-06-18 09:26:00,73.3,70.5,29.85,NNE,24,0.0,15.0,91,5.26,,---,0.00,VWS V13.01,2013-06-18 13:26:00,
2013-06-18 09:31:00,73.3,70.5,29.85,East,101,0.0,15.0,91,5.26,,---,0.00,VWS V13.01,2013-06-18 13:31:00,
2013-06-18 09:36:00,73.2,70.4,29.85,SE,127,1.0,15.0,91,5.26,,---,0.00,VWS V13.01,2013-06-18 13:36:00,
2013-06-18 09:41:00,73.3,70.2,29.85,NNW,332,0.0,15.0,90,5.26,,---,0.00,VWS V13.01,2013-06-18 13:41:00,
2013-06-18 09:46:00,73.4,70.3,29.85,NE,49,0.0,15.0,90,5.26,,---,0.00,VWS V13.01,2013-06-18 13:46:00,
2013-06-18 09:51:00,73.5,70.4,29.85,ENE,63,0.0,15.0,90,5.26,,---,0.00,VWS V13.01,2013-06-18 13:51:00,
2013-06-18 09:55:00,73.8,70.7,29.85,NE,52,0.0,15.0,90,5.26,,---,0.00,VWS V13.01,2013-06-18 13:55:00,
2013-06-18 10:00:00,74.0,70.6,29.85,ESE,111,0.0,15.0,89,5.26,,---,0.00,VWS V13.01,2013-06-18 14:00:00,
2013-06-18 10:05:00,73.9,70.5,29.85,NE,38,0.0,15.0,89,5.26,,---,0.00,VWS V13.01,2013-06-18 14:05:00,
2013-06-18 10:10:00,74.0,70.6,29.85,ENE,74,0.0,15.0,89,5.26,,---,0.00,VWS V13.01,2013-06-18 14:10:00,
2013-06-18 10:15:00,74.0,70.6,29.85,ESE,120,1.0,15.0,89,5.26,,---,0.00,VWS V13.01,2013-06-18 14:15:00,
2013-06-18 10:20:00,74.2,70.8,29.85,NW,320,0.0,15.0,89,5.26,,---,0.00,VWS V13.01,2013-06-18 14:20:00,
2013-06-18 10:25:00,74.4,70.9,29.85,SE,125,0.0,15.0,89,5.26,,---,0.00,VWS V13.01,2013-06-18 14:25:00,
2013-06-18 10:30:00,74.4,70.9,29.85,ESE,106,0.0,15.0,89,5.26,,---,0.00,VWS V13.01,2013-06-18 14:30:00,
2013-06-18 10:36:00,74.4,70.9,29.85,NE,37,0.0,15.0,89,5.26,,---,0.00,VWS V13.01,2013-06-18 14:36:00,
2013-06-18 10:41:00,74.3,70.5,29.85,East,82,0.0,15.0,88,5.26,,---,0.00,VWS V13.01,2013-06-18 14:41:00,
2013-06-18 10:46:00,74.2,70.8,29.85,East,82,0.0,15.0,89,5.26,,---,0.00,VWS V13.01,2013-06-18 14:46:00,
2013-06-18 10:51:00,74.0,70.6,29.85,ESE,111,0.0,15.0,89,5.26,,---,0.00,VWS V13.01,2013-06-18 14:51:00,
2013-06-18 10:56:00,74.1,71.0,29.85,ENE,68,0.0,15.0,90,5.26,,---,0.00,VWS V13.01,2013-06-18 14:56:00,
2013-06-18 11:01:00,74.1,70.7,29.85,ENE,64,2.0,15.0,89,5.26,,---,0.00,VWS V13.01,2013-06-18 15:01:00,
2013-06-18 11:06:00,74.0,70.6,29.85,SE,127,0.0,15.0,89,5.26,,---,0.00,VWS V13.01,2013-06-18 15:06:00,
2013-06-18 11:11:00,74.2,70.8,29.85,NE,39,0.0,15.0,89,5.26,,---,0.00,VWS V13.01,2013-06-18 15:11:00,
2013-06-18 11:15:00,74.5,71.1,29.85,NE,43,0.0,15.0,89,5.26,,---,0.00,VWS V13.01,2013-06-18 15:15:00,
2013-06-18 11:20:00,74.7,70.9,29.85,NE,39,0.0,15.0,88,5.26,,---,0.00,VWS V13.01,2013-06-18 15:20:00,
2013-06-18 11:25:00,74.9,71.1,29.85,SSE,149,2.0,15.0,88,5.26,,---,0.00,VWS V13.01,2013-06-18 15:25:00,
2013-06-18 11:30:00,75.0,71.2,29.85,NNW,329,0.0,15.0,88,5.26,,---,0.00,VWS V13.01,2013-06-18 15:30:00,
2013-06-18 11:35:00,75.0,71.2,29.85,NNE,13,0.0,15.0,88,5.26,,---,0.00,VWS V13.01,2013-06-18 15:35:00,
2013-06-18 11:40:00,75.0,70.9,29.85,North,0,0.0,15.0,87,5.26,,---,0.00,VWS V13.01,2013-06-18 15:40:00,
2013-06-18 11:45:00,74.8,71.0,29.85,NE,36,0.0,15.0,88,5.26,,---,0.00,VWS V13.01,2013-06-18 15:45:00,
2013-06-18 11:50:00,74.8,71.0,29.85,North,5,0.0,15.0,88,5.26,,---,0.00,VWS V13.01,2013-06-18 15:50:00,
2013-06-18 11:55:00,74.9,71.1,29.85,NE,46,0.0,15.0,88,5.26,,---,0.00,VWS V13.01,2013-06-18 15:55:00,
2013-06-18 12:00:00,75.2,71.4,29.85,NE,41,0.0,15.0,88,5.26,,---,0.00,VWS V13.01,2013-06-18 16:00:00,
2013-06-18 12:05:00,75.4,71.3,29.85,ESE,115,0.0,15.0,87,5.26,,---,0.00,VWS V13.01,2013-06-18 16:05:00,
2013-06-18 12:10:00,75.4,71.3,29.84,SSE,160,0.0,15.0,87,5.26,,---,0.00,VWS V13.01,2013-06-18 16:10:00,
2013-06-18 12:15:00,75.5,71.4,29.84,NE,34,0.0,15.0,87,5.26,,---,0.00,VWS V13.01,2013-06-18 16:15:00,
2013-06-18 12:20:00,75.5,71.0,29.84,NNE,32,0.0,15.0,86,5.26,,---,0.00,VWS V13.01,2013-06-18 16:20:00,
2013-06-18 12:25:00,75.8,71.7,29.83,NW,325,0.0,15.0,87,5.26,,---,0.00,VWS V13.01,2013-06-18 16:25:00,
2013-06-18 12:30:00,76.4,72.2,29.83,NE,34,0.0,15.0,87,5.26,,---,0.00,VWS V13.01,2013-06-18 16:30:00,
2013-06-18 12:35:00,77.3,73.1,29.83,ESE,112,0.0,15.0,87,5.26,,---,0.00,VWS V13.01,2013-06-18 16:35:00,
2013-06-18 12:40:00,78.0,72.4,29.82,NNW,333,0.0,15.0,83,5.26,,---,0.00,VWS V13.01,2013-06-18 16:40:00,
2013-06-18 12:45:00,78.9,73.3,29.82,East,94,4.0,15.0,83,5.26,,---,0.00,VWS V13.01,2013-06-18 16:45:00,
2013-06-18 12:50:00,79.5,72.8,29.82,NNW,337,0.0,15.0,80,5.26,,---,0.00,VWS V13.01,2013-06-18 16:50:00,
2013-06-18 12:55:00,79.3,72.6,29.82,SE,127,0.0,15.0,80,5.26,,---,0.00,VWS V13.01,2013-06-18 16:55:00,
2013-06-18 13:00:00,79.0,71.9,29.82,West,273,0.0,15.0,79,5.26,,---,0.00,VWS V13.01,2013-06-18 17:00:00,
2013-06-18 13:05:00,78.9,72.2,29.82,East,79,0.0,15.0,80,5.26,,---,0.00,VWS V13.01,2013-06-18 17:05:00,
2013-06-18 13:10:00,79.0,72.3,29.82,East,86,0.0,15.0,80,5.26,,---,0.00,VWS V13.01,2013-06-18 17:10:00,
2013-06-18 13:15:00,79.0,71.9,29.82,NNE,30,1.0,15.0,79,5.26,,---,0.00,VWS V13.01,2013-06-18 17:15:00,
2013-06-18 13:20:00,78.6,71.6,29.82,North,352,1.0,15.0,79,5.26,,---,0.00,VWS V13.01,2013-06-18 17:20:00,
2013-06-18 13:25:00,78.6,71.9,29.81,ESE,114,0.0,15.0,80,5.26,,---,0.00,VWS V13.01,2013-06-18 17:25:00,
2013-06-18 13:30:00,78.6,71.9,29.81,East,80,1.0,15.0,80,5.26,,---,0.00,VWS V13.01,2013-06-18 17:30:00,
2013-06-18 13:35:00,78.6,71.6,29.81,East,89,2.0,15.0,79,5.26,,---,0.00,VWS V13.01,2013-06-18 17:35:00,
2013-06-18 13:40:00,78.6,71.6,29.81,ESE,120,0.0,15.0,79,5.26,,---,0.00,VWS V13.01,2013-06-18 17:40:00,
2013-06-18 13:45:00,78.8,72.5,29.81,ESE,115,0.0,15.0,81,5.26,,---,0.00,VWS V13.01,2013-06-18 17:45:00,
2013-06-18 13:50:00,79.3,72.2,29.81,NNW,335,0.0,15.0,79,5.26,,---,0.00,VWS V13.01,2013-06-18 17:50:00,
2013-06-18 13:55:00,79.7,72.6,29.80,East,97,0.0,15.0,79,5.26,,---,0.00,VWS V13.01,2013-06-18 17:55:00,
2013-06-18 14:00:00,80.1,72.6,29.80,NNW,330,1.0,15.0,78,5.26,,---,0.00,VWS V13.01,2013-06-18 18:00:00,
2013-06-18 14:05:00,80.3,72.8,29.80,NE,55,1.0,15.0,78,5.26,,---,0.00,VWS V13.01,2013-06-18 18:05:00,
2013-06-18 14:10:00,80.5,72.6,29.80,ESE,114,0.0,15.0,77,5.26,,---,0.00,VWS V13.01,2013-06-18 18:10:00,
2013-06-18 14:15:00,80.6,72.3,29.80,NNE,23,0.0,15.0,76,5.26,,---,0.00,VWS V13.01,2013-06-18 18:15:00,
2013-06-18 14:20:00,80.5,72.6,29.80,ESE,118,3.0,15.0,77,5.26,,---,0.00,VWS V13.01,2013-06-18 18:20:00,
2013-06-18 14:25:00,80.6,73.1,29.79,ENE,77,0.0,15.0,78,5.26,,---,0.00,VWS V13.01,2013-06-18 18:25:00,
2013-06-18 14:30:00,80.9,74.2,29.79,North,352,0.0,15.0,80,5.26,,---,0.00,VWS V13.01,2013-06-18 18:30:00,
2013-06-18 14:35:00,81.7,73.8,29.79,NE,47,1.0,15.0,77,5.26,,---,0.00,VWS V13.01,2013-06-18 18:35:00,
2013-06-18 14:40:00,82.0,74.1,29.78,NE,34,0.0,15.0,77,5.26,,---,0.00,VWS V13.01,2013-06-18 18:40:00,
2013-06-18 14:45:00,82.1,74.6,29.78,NW,319,0.0,15.0,78,5.26,,---,0.00,VWS V13.01,2013-06-18 18:45:00,
2013-06-18 14:50:00,82.1,73.4,29.78,ENE,63,0.0,15.0,75,5.26,,---,0.00,VWS V13.01,2013-06-18 18:50:00,
2013-06-18 14:55:00,81.4,73.1,29.77,ENE,70,0.0,15.0,76,5.26,,---,0.00,VWS V13.01,2013-06-18 18:55:00,
2013-06-18 15:00:00,81.0,73.9,29.77,ENE,69,0.0,15.0,79,5.26,,---,0.00,VWS V13.01,2013-06-18 19:00:00,
2013-06-18 15:05:00,80.7,74.0,29.77,NE,51,0.0,15.0,80,5.26,,---,0.00,VWS V13.01,2013-06-18 19:05:00,
2013-06-18 15:10:00,80.2,73.1,29.77,East,95,0.0,15.0,79,5.26,,---,0.00,VWS V13.01,2013-06-18 19:10:00,
2013-06-18 15:15:00,79.8,73.1,29.77,SE,131,0.0,15.0,80,5.26,,---,0.00,VWS V13.01,2013-06-18 19:15:00,
2013-06-18 15:20:00,79.7,73.4,29.77,SSE,159,0.0,15.0,81,5.26,,---,0.00,VWS V13.01,2013-06-18 19:20:00,
2013-06-18 15:25:00,80.0,73.3,29.76,SE,124,0.0,15.0,80,5.26,,---,0.00,VWS V13.01,2013-06-18 19:25:00,
2013-06-18 15:30:00,80.4,74.4,29.76,SE,125,0.0,15.0,82,5.26,,---,0.00,VWS V13.01,2013-06-18 19:30:00,
2013-06-18 15:35:00,81.2,74.4,29.76,NE,46,0.0,15.0,80,5.26,,---,0.00,VWS V13.01,2013-06-18 19:35:00,
2013-06-18 15:40:00,81.8,75.4,29.76,North,0,0.0,15.0,81,5.26,,---,0.00,VWS V13.01,2013-06-18 19:40:00,
2013-06-18 15:45:00,82.6,73.9,29.76,NNW,346,0.0,15.0,75,5.26,,---,0.00,VWS V13.01,2013-06-18 19:45:00,
2013-06-18 15:50:00,82.8,74.1,29.76,ESE,107,0.0,15.0,75,5.26,,---,0.00,VWS V13.01,2013-06-18 19:50:00,
2013-06-18 15:55:00,83.0,74.3,29.75,NNW,342,1.0,15.0,75,5.26,,---,0.00,VWS V13.01,2013-06-18 19:55:00,
2013-06-18 16:00:00,83.6,75.2,29.75,SSE,152,0.0,15.0,76,5.26,,---,0.00,VWS V13.01,2013-06-18 20:00:00,
2013-06-18 16:05:00,83.9,74.3,29.75,ESE,118,0.0,15.0,73,5.26,,---,0.00,VWS V13.01,2013-06-18 20:05:00,
2013-06-18 16:10:00,83.6,74.4,29.74,NNW,347,1.0,15.0,74,5.26,,---,0.00,VWS V13.01,2013-06-18 20:10:00,
2013-06-18 16:15:00,83.4,74.2,29.74,NE,41,0.0,15.0,74,5.26,,---,0.00,VWS V13.01,2013-06-18 20:15:00,
2013-06-18 16:20:00,83.2,74.8,29.74,WNW,297,0.0,15.0,76,5.26,,---,0.00,VWS V13.01,2013-06-18 20:20:00,
2013-06-18 16:25:00,82.7,74.4,29.74,WNW,297,0.0,15.0,76,5.26,,---,0.00,VWS V13.01,2013-06-18 20:25:00,
2013-06-18 16:30:00,82.1,74.6,29.74,WNW,298,0.0,15.0,78,5.26,,---,0.00,VWS V13.01,2013-06-18 20:30:00,
2013-06-18 16:35:00,81.1,74.3,29.74,WNW,298,0.0,15.0,80,5.26,,---,0.00,VWS V13.01,2013-06-18 20:35:00,
2013-06-18 16:40:00,80.4,74.0,29.73,WNW,298,0.0,15.0,81,5.26,,---,0.00,VWS V13.01,2013-06-18 20:40:00,
2013-06-18 16:45:00,80.0,74.4,29.73,WNW,298,0.0,15.0,83,5.26,,---,0.00,VWS V13.01,2013-06-18 20:45:00,
2013-06-18 16:50:00,80.0,74.7,29.73,WNW,297,0.0,15.0,84,5.26,,---,0.00,VWS V13.01,2013-06-18 20:50:00,
2013-06-18 16:55:00,79.7,74.4,29.72,East,95,5.0,15.0,84,5.26,,---,0.00,VWS V13.01,2013-06-18 20:55:00,
2013-06-18 17:00:00,77.9,72.3,29.72,ENE,70,0.0,15.0,83,5.47,,---,0.22,VWS V13.01,2013-06-18 21:00:00,
2013-06-18 17:05:00,76.2,72.1,29.72,NNE,23,0.0,15.0,87,5.53,,---,0.27,VWS V13.01,2013-06-18 21:05:00,
2013-06-18 17:10:00,75.7,72.6,29.74,East,85,0.0,15.0,90,5.53,,---,0.27,VWS V13.01,2013-06-18 21:10:00,
2013-06-18 17:15:00,75.4,72.9,29.74,ENE,77,1.0,15.0,92,5.53,,---,0.27,VWS V13.01,2013-06-18 21:15:00,
2013-06-18 17:20:00,75.3,72.8,29.74,ENE,77,0.0,15.0,92,5.53,,---,0.27,VWS V13.01,2013-06-18 21:20:00,
2013-06-18 17:25:00,75.4,73.2,29.74,East,79,0.0,15.0,93,5.53,,---,0.27,VWS V13.01,2013-06-18 21:25:00,
2013-06-18 17:30:00,75.4,73.6,29.74,East,79,0.0,15.0,94,5.53,,---,0.27,VWS V13.01,2013-06-18 21:30:00,
2013-06-18 17:35:00,75.7,74.2,29.74,East,79,0.0,15.0,95,5.53,,---,0.27,VWS V13.01,2013-06-18 21:35:00,
2013-06-18 17:40:00,75.8,73.9,29.74,ENE,72,0.0,15.0,94,5.53,,---,0.27,VWS V13.01,2013-06-18 21:40:00,
2013-06-18 17:45:00,75.9,74.1,29.74,ENE,72,0.0,15.0,94,5.53,,---,0.27,VWS V13.01,2013-06-18 21:45:00,
2013-06-18 17:50:00,75.9,74.1,29.74,NW,322,0.0,15.0,94,5.53,,---,0.27,VWS V13.01,2013-06-18 21:50:00,
2013-06-18 17:55:00,75.8,73.9,29.74,NW,316,1.0,15.0,94,5.53,,---,0.27,VWS V13.01,2013-06-18 21:55:00,
2013-06-18 18:00:00,74.5,71.1,29.74,SSE,149,0.0,15.0,89,5.54,,---,0.28,VWS V13.01,2013-06-18 22:00:00,
2013-06-18 18:05:00,73.8,70.7,29.74,ENE,72,0.0,15.0,90,5.54,,---,0.28,VWS V13.01,2013-06-18 22:05:00,
2013-06-18 18:10:00,73.0,69.6,29.75,NNW,330,0.0,15.0,89,5.55,,---,0.29,VWS V13.01,2013-06-18 22:10:00,
2013-06-18 18:15:00,72.4,69.6,29.75,ENE,65,0.0,15.0,91,5.55,,---,0.29,VWS V13.01,2013-06-18 22:15:00,
2013-06-18 18:20:00,72.0,69.2,29.75,ENE,77,0.0,15.0,91,5.55,,---,0.29,VWS V13.01,2013-06-18 22:20:00,
2013-06-18 18:25:00,71.5,69.1,29.76,WNW,301,0.0,15.0,92,5.55,,---,0.29,VWS V13.01,2013-06-18 22:25:00,
2013-06-18 18:30:00,71.2,69.1,29.76,NW,315,0.0,15.0,93,5.55,,---,0.29,VWS V13.01,2013-06-18 22:30:00,
2013-06-18 18:35:00,71.0,68.9,29.76,SE,129,1.0,15.0,93,5.55,,---,0.29,VWS V13.01,2013-06-18 22:35:00,
2013-06-18 18:40:00,70.7,68.9,29.77,ESE,105,0.0,15.0,94,5.56,,---,0.30,VWS V13.01,2013-06-18 22:40:00,
2013-06-18 18:45:00,70.6,68.8,29.77,SE,131,0.0,15.0,94,5.57,,---,0.31,VWS V13.01,2013-06-18 22:45:00,
2013-06-18 18:50:00,70.5,69.0,29.77,SE,131,0.0,15.0,95,5.59,,---,0.33,VWS V13.01,2013-06-18 22:50:00,
2013-06-18 18:55:00,70.4,68.9,29.76,SE,131,0.0,15.0,95,5.62,,---,0.36,VWS V13.01,2013-06-18 22:55:00,
2013-06-18 19:00:00,70.3,68.8,29.76,SE,132,0.0,15.0,95,5.64,,---,0.38,VWS V13.01,2013-06-18 23:00:00,
2013-06-18 19:05:00,70.3,68.8,29.76,SE,132,0.0,15.0,95,5.65,,---,0.39,VWS V13.01,2013-06-18 23:05:00,
2013-06-18 19:10:00,70.2,68.7,29.76,SE,133,0.0,15.0,95,5.67,,---,0.41,VWS V13.01,2013-06-18 23:10:00,
2013-06-18 19:15:00,70.1,68.6,29.76,SE,133,0.0,15.0,95,5.67,,---,0.41,VWS V13.01,2013-06-18 23:15:00,
2013-06-18 19:20:00,70.1,68.9,29.76,SE,133,0.0,15.0,96,5.69,,---,0.43,VWS V13.01,2013-06-18 23:20:00,
2013-06-18 19:25:00,70.1,68.9,29.76,SE,133,0.0,15.0,96,5.70,,---,0.45,VWS V13.01,2013-06-18 23:25:00,
2013-06-18 19:30:00,70.0,68.8,29.76,SE,132,0.0,15.0,96,5.72,,---,0.46,VWS V13.01,2013-06-18 23:30:00,
2013-06-18 19:35:00,70.0,68.8,29.76,SE,132,0.0,15.0,96,5.72,,---,0.46,VWS V13.01,2013-06-18 23:35:00,
2013-06-18 19:40:00,70.0,68.8,29.77,SE,133,0.0,15.0,96,5.72,,---,0.47,VWS V13.01,2013-06-18 23:40:00,
2013-06-18 19:45:00,70.1,68.9,29.77,SE,133,0.0,15.0,96,5.73,,---,0.47,VWS V13.01,2013-06-18 23:45:00,
2013-06-18 19:50:00,70.0,68.8,29.77,SE,133,0.0,15.0,96,5.73,,---,0.47,VWS V13.01,2013-06-18 23:50:00,
2013-06-18 19:55:00,70.0,68.8,29.77,SE,133,0.0,15.0,96,5.73,,---,0.47,VWS V13.01,2013-06-18 23:55:00,
2013-06-18 20:00:00,70.0,68.8,29.77,SE,133,0.0,15.0,96,5.73,,---,0.47,VWS V13.01,2013-06-19 00:00:00,
2013-06-18 20:05:00,70.0,68.8,29.77,SE,133,0.0,15.0,96,5.73,,---,0.47,VWS V13.01,2013-06-19 00:05:00,
2013-06-18 20:10:00,69.9,68.7,29.77,SE,132,0.0,15.0,96,5.73,,---,0.47,VWS V13.01,2013-06-19 00:10:00,
2013-06-18 20:15:00,69.9,68.7,29.77,SE,132,0.0,15.0,96,5.73,,---,0.47,VWS V13.01,2013-06-19 00:15:00,
2013-06-18 20:20:00,69.9,69.0,29.77,SE,132,0.0,15.0,97,5.73,,---,0.47,VWS V13.01,2013-06-19 00:20:00,
2013-06-18 20:25:00,69.9,69.0,29.77,SE,133,0.0,15.0,97,5.73,,---,0.47,VWS V13.01,2013-06-19 00:25:00,
2013-06-18 20:30:00,69.9,69.0,29.77,SE,133,0.0,15.0,97,5.73,,---,0.47,VWS V13.01,2013-06-19 00:30:00,
2013-06-18 20:35:00,69.9,69.0,29.77,SE,133,0.0,15.0,97,5.73,,---,0.47,VWS V13.01,2013-06-19 00:35:00,
2013-06-18 20:40:00,69.9,69.0,29.79,SE,133,0.0,15.0,97,5.73,,---,0.47,VWS V13.01,2013-06-19 00:40:00,
2013-06-18 20:45:00,70.0,69.1,29.79,SE,132,0.0,15.0,97,5.73,,---,0.47,VWS V13.01,2013-06-19 00:45:00,
2013-06-18 20:50:00,69.9,69.0,29.79,SE,133,0.0,15.0,97,5.73,,---,0.47,VWS V13.01,2013-06-19 00:50:00,
2013-06-18 20:55:00,69.8,68.9,29.78,SE,132,0.0,15.0,97,5.73,,---,0.47,VWS V13.01,2013-06-19 00:55:00,
2013-06-18 21:00:00,69.8,68.9,29.78,SE,133,0.0,15.0,97,5.73,,---,0.47,VWS V13.01,2013-06-19 01:00:00,
2013-06-18 21:05:00,69.7,68.8,29.78,SE,133,0.0,15.0,97,5.73,,---,0.47,VWS V13.01,2013-06-19 01:05:00,
2013-06-18 21:10:00,69.6,68.7,29.78,SE,133,0.0,15.0,97,5.73,,---,0.47,VWS V13.01,2013-06-19 01:10:00,
2013-06-18 21:15:00,69.6,68.7,29.78,SE,132,0.0,15.0,97,5.73,,---,0.47,VWS V13.01,2013-06-19 01:15:00,
2013-06-18 21:20:00,69.5,68.6,29.78,SE,133,0.0,15.0,97,5.73,,---,0.47,VWS V13.01,2013-06-19 01:20:00,
2013-06-18 21:25:00,69.5,68.6,29.79,SE,132,0.0,15.0,97,5.73,,---,0.47,VWS V13.01,2013-06-19 01:25:00,
2013-06-18 21:30:00,69.5,68.6,29.79,SE,133,0.0,15.0,97,5.73,,---,0.47,VWS V13.01,2013-06-19 01:30:00,
2013-06-18 21:35:00,69.6,68.7,29.79,SE,132,0.0,15.0,97,5.73,,---,0.47,VWS V13.01,2013-06-19 01:35:00,
2013-06-18 21:40:00,69.6,68.7,29.80,SE,132,0.0,15.0,97,5.73,,---,0.47,VWS V13.01,2013-06-19 01:40:00,
2013-06-18 21:45:00,69.6,68.7,29.80,SE,133,0.0,15.0,97,5.73,,---,0.47,VWS V13.01,2013-06-19 01:45:00,
2013-06-18 21:50:00,69.6,68.7,29.80,SE,132,0.0,15.0,97,5.73,,---,0.47,VWS V13.01,2013-06-19 01:50:00,
2013-06-18 21:55:00,69.6,68.7,29.81,SE,132,0.0,15.0,97,5.73,,---,0.47,VWS V13.01,2013-06-19 01:55:00,
2013-06-18 22:00:00,69.6,68.7,29.81,SE,133,0.0,15.0,97,5.73,,---,0.47,VWS V13.01,2013-06-19 02:00:00,
2013-06-18 22:05:00,69.6,68.7,29.81,SE,133,0.0,15.0,97,5.73,,---,0.47,VWS V13.01,2013-06-19 02:05:00,
2013-06-18 22:10:00,69.6,68.7,29.82,SE,133,0.0,15.0,97,5.73,,---,0.47,VWS V13.01,2013-06-19 02:10:00,
2013-06-18 22:15:00,69.6,68.7,29.82,SE,133,0.0,15.0,97,5.73,,---,0.47,VWS V13.01,2013-06-19 02:15:00,
2013-06-18 22:20:00,69.6,68.7,29.82,SE,133,0.0,15.0,97,5.73,,---,0.47,VWS V13.01,2013-06-19 02:20:00,
2013-06-18 22:25:00,69.5,68.6,29.82,SE,133,0.0,15.0,97,5.73,,---,0.47,VWS V13.01,2013-06-19 02:25:00,
2013-06-18 22:30:00,69.4,68.5,29.82,SE,132,0.0,15.0,97,5.73,,---,0.47,VWS V13.01,2013-06-19 02:30:00,
2013-06-18 22:35:00,69.4,68.5,29.82,SE,133,0.0,15.0,97,5.73,,---,0.47,VWS V13.01,2013-06-19 02:35:00,
2013-06-18 22:40:00,69.3,68.4,29.82,SE,133,0.0,15.0,97,5.73,,---,0.47,VWS V13.01,2013-06-19 02:40:00,
2013-06-18 22:45:00,69.3,68.4,29.82,SE,132,0.0,15.0,97,5.73,,---,0.47,VWS V13.01,2013-06-19 02:45:00,
2013-06-18 22:50:00,69.2,68.3,29.82,SE,132,0.0,15.0,97,5.73,,---,0.47,VWS V13.01,2013-06-19 02:50:00,
2013-06-18 22:55:00,69.2,68.3,29.83,SE,132,0.0,15.0,97,5.73,,---,0.47,VWS V13.01,2013-06-19 02:55:00,
2013-06-18 23:00:00,69.2,68.6,29.83,SE,132,0.0,15.0,98,5.73,,---,0.47,VWS V13.01,2013-06-19 03:00:00,
2013-06-18 23:05:00,69.3,68.7,29.83,SE,133,0.0,15.0,98,5.73,,---,0.47,VWS V13.01,2013-06-19 03:05:00,
2013-06-18 23:10:00,69.2,68.6,29.83,SE,132,0.0,15.0,98,5.73,,---,0.47,VWS V13.01,2013-06-19 03:10:00,
2013-06-18 23:15:00,69.2,68.3,29.83,SE,132,0.0,15.0,97,5.73,,---,0.47,VWS V13.01,2013-06-19 03:15:00,
2013-06-18 23:20:00,69.1,68.2,29.83,SE,133,0.0,15.0,97,5.73,,---,0.47,VWS V13.01,2013-06-19 03:20:00,
2013-06-18 23:25:00,69.0,68.1,29.84,SE,133,0.0,15.0,97,5.73,,---,0.47,VWS V13.01,2013-06-19 03:25:00,
2013-06-18 23:30:00,68.8,67.9,29.84,SE,132,0.0,15.0,97,5.73,,---,0.47,VWS V13.01,2013-06-19 03:30:00,
2013-06-18 23:35:00,68.5,67.6,29.84,SE,132,0.0,15.0,97,5.73,,---,0.47,VWS V13.01,2013-06-19 03:35:00,
2013-06-18 23:40:00,68.3,67.4,29.84,SE,133,0.0,15.0,97,5.73,,---,0.47,VWS V13.01,2013-06-19 03:40:00,
2013-06-18 23:45:00,68.1,67.2,29.84,SE,133,0.0,15.0,97,5.73,,---,0.47,VWS V13.01,2013-06-19 03:45:00,
2013-06-18 23:50:00,68.0,67.1,29.84,SE,132,0.0,15.0,97,5.73,,---,0.47,VWS V13.01,2013-06-19 03:50:00,
2013-06-18 23:55:00,67.9,67.0,29.84,SE,133,0.0,15.0,97,5.73,,---,0.47,VWS V13.01,2013-06-19 03:55:00,